Location: Arclight Observatory
(36.5667°N, 87.3333°W)
Time: 00:30:08
(UTC-05:00)

Hubble Space Telescope - Visible Passes

Search period start: 26 September 2017 00:00
Search period end: 06 October 2017 00:00
Orbit: 538 x 541 km, 28.5° (Epoch: 25 September)

Date Brightness Start Highest point End Pass type
(mag) Time Alt. Az. Time Alt. Az. Time Alt. Az.
29 Sep 3.4 05:55:40 10° S 05:56:59 11° SSE 05:58:18 10° SE visible
30 Sep 3.2 05:44:36 10° SSW 05:46:43 14° SSE 05:48:49 10° SE visible
01 Oct 3.1 05:33:52 10° SSW 05:36:27 16° SSE 05:39:02 10° SE visible
02 Oct 2.8 05:24:13 14° SSW 05:26:11 18° SSE 05:29:05 10° ESE visible
03 Oct 2.6 05:14:45 18° SSW 05:15:56 21° SSE 05:19:03 10° ESE visible
04 Oct 2.4 05:05:15 22° S 05:05:42 23° S 05:08:58 10° ESE visible
05 Oct 2.4 04:55:45 24° SSE 04:55:45 24° SSE 04:58:50 10° ESE visible
